| time (UTC) | temp F | wind direction | speed knots | gust knots | rain 1hr in | rain 24hr in | rain mn in | humidity % | barometer mb |
| 20260507210818 | 58 | 0 | 0.0 | 1.7 | 0.00 | 0.00 | 0.00 | 86 | 1016.4 |
| 20260507210318 | 58 | 0 | 0.0 | 2.6 | 0.00 | 0.00 | 0.00 | 86 | 1016.6 |
| 20260507205818 | 58 | 0 | 1.7 | 3.5 | 0.00 | 0.00 | 0.00 | 86 | 1016.5 |
| 20260507205321 | 58 | 0 | 0.9 | 3.5 | 0.00 | 0.00 | 0.00 | 86 | 1016.5 |
| 20260507204818 | 58 | 0 | 3.5 | 3.5 | 0.00 | 0.00 | 0.00 | 86 | 1016.6 |
| 20260507204321 | 58 | 0 | 0.9 | 1.7 | 0.00 | 0.00 | 0.00 | 86 | 1016.5 |
| 20260507203824 | 58 | 0 | 0.0 | 1.7 | 0.00 | 0.00 | 0.00 | 86 | 1016.5 |
| 20260507203324 | 59 | 0 | 0.0 | 1.7 | 0.00 | 0.00 | 0.00 | 86 | 1016.6 |
| 20260507202821 | 59 | 0 | 1.7 | 2.6 | 0.00 | 0.00 | 0.00 | 86 | 1016.4 |
| 20260507202318 | 59 | 0 | 1.7 | 1.7 | 0.00 | 0.00 | 0.00 | 86 | 1016.5 |
| 20260507201821 | 59 | 0 | 0.9 | 2.6 | 0.00 | 0.00 | 0.00 | 85 | 1016.5 |
| 20260507201321 | 59 | 0 | 0.9 | 1.7 | 0.00 | 0.00 | 0.00 | 85 | 1016.4 |
| 20260507200821 | 59 | 0 | 0.9 | 1.7 | 0.00 | 0.00 | 0.00 | 85 | 1016.3 |
| 20260507200318 | 59 | 0 | 0.9 | 1.7 | 0.00 | 0.00 | 0.00 | 85 | 1016.3 |
| 20260507195818 | 59 | 0 | 0.0 | 0.0 | 0.00 | 0.00 | 0.00 | 85 | 1016.2 |
| 20260507195318 | 59 | 0 | 0.0 | 0.0 | 0.00 | 0.00 | 0.00 | 85 | 1016.3 |
| 20260507194821 | 59 | 0 | 0.0 | 0.0 | 0.00 | 0.00 | 0.00 | 85 | 1016.2 |
| 20260507194321 | 59 | 0 | 0.0 | 0.0 | 0.00 | 0.00 | 0.00 | 85 | 1016.2 |
| 20260507193818 | 59 | 0 | 0.0 | 0.0 | 0.00 | 0.00 | 0.00 | 85 | 1016.2 |
| 20260507193319 | 59 | 0 | 0.0 | 0.0 | 0.00 | 0.00 | 0.00 | 84 | 1016.3 |
| 20260507192821 | 59 | 0 | 0.0 | 1.7 | 0.00 | 0.00 | 0.00 | 84 | 1016.2 |
| 20260507192327 | 59 | 0 | 0.9 | 1.7 | 0.00 | 0.00 | 0.00 | 84 | 1016.2 |
| 20260507191818 | 59 | 0 | 0.0 | 1.7 | 0.00 | 0.00 | 0.00 | 84 | 1016.2 |
| 20260507191318 | 60 | 0 | 0.9 | 1.7 | 0.00 | 0.00 | 0.00 | 84 | 1016.1 |
| 20260507190821 | 60 | 0 | 0.9 | 1.7 | 0.00 | 0.00 | 0.00 | 83 | 1016.1 |
| 20260507190318 | 60 | 0 | 0.9 | 1.7 | 0.00 | 0.00 | 0.00 | 83 | 1016.1 |
| 20260507185818 | 60 | 0 | 0.9 | 1.7 | 0.00 | 0.00 | 0.00 | 83 | 1016.1 |
| 20260507185318 | 60 | 0 | 0.9 | 2.6 | 0.00 | 0.00 | 0.00 | 83 | 1016.1 |
| 20260507184824 | 60 | 0 | 0.9 | 2.6 | 0.00 | 0.00 | 0.00 | 84 | 1016.2 |
| 20260507184318 | 60 | 0 | 0.9 | 1.7 | 0.00 | 0.00 | 0.00 | 83 | 1016.2 |
| 20260507183818 | 60 | 0 | 0.0 | 2.6 | 0.00 | 0.00 | 0.00 | 83 | 1016.3 |
| 20260507183318 | 60 | 0 | 0.9 | 2.6 | 0.00 | 0.00 | 0.00 | 83 | 1016.2 |
| 20260507182821 | 60 | 0 | 0.9 | 2.6 | 0.00 | 0.00 | 0.00 | 83 | 1016.2 |
| 20260507182321 | 60 | 0 | 0.9 | 2.6 | 0.00 | 0.00 | 0.00 | 82 | 1016.1 |
| 20260507181818 | 61 | 0 | 0.9 | 2.6 | 0.00 | 0.00 | 0.00 | 83 | 1016.1 |
| 20260507181318 | 61 | 0 | 2.6 | 3.5 | 0.00 | 0.00 | 0.00 | 83 | 1016.0 |
| 20260507180824 | 61 | 0 | 1.7 | 7.0 | 0.00 | 0.00 | 0.00 | 82 | 1016.2 |
| 20260507180318 | 61 | 0 | 2.6 | 5.2 | 0.00 | 0.00 | 0.00 | 82 | 1016.2 |
| 20260507175827 | 62 | 0 | 0.0 | 3.5 | 0.00 | 0.00 | 0.00 | 81 | 1016.2 |
| 20260507175318 | 62 | 0 | 1.7 | 2.6 | 0.00 | 0.00 | 0.00 | 81 | 1016.2 |
| 20260507174818 | 62 | 0 | 0.9 | 2.6 | 0.00 | 0.00 | 0.00 | 80 | 1016.2 |
| 20260507174318 | 62 | 0 | 0.9 | 4.3 | 0.00 | 0.00 | 0.00 | 80 | 1016.2 |
| 20260507173821 | 62 | 0 | 2.6 | 3.5 | 0.00 | 0.00 | 0.00 | 80 | 1016.1 |
| 20260507173318 | 62 | 0 | 1.7 | 2.6 | 0.00 | 0.00 | 0.00 | 80 | 1016.2 |
| 20260507172823 | 62 | 0 | 1.7 | 5.2 | 0.00 | 0.00 | 0.00 | 81 | 1016.2 |
| 20260507172327 | 63 | 0 | 0.9 | 4.3 | 0.00 | 0.00 | 0.00 | 79 | 1016.4 |
| 20260507171821 | 63 | 0 | 1.7 | 7.0 | 0.00 | 0.00 | 0.00 | 79 | 1016.2 |
| 20260507171324 | 63 | 0 | 2.6 | 3.5 | 0.00 | 0.00 | 0.00 | 79 | 1016.1 |
| 20260507170818 | 63 | 0 | 2.6 | 4.3 | 0.00 | 0.00 | 0.00 | 79 | 1016.1 |
| 20260507170321 | 63 | 0 | 1.7 | 5.2 | 0.00 | 0.00 | 0.00 | 78 | 1016.2 |
| 20260507165821 | 63 | 0 | 1.7 | 7.8 | 0.00 | 0.00 | 0.00 | 77 | 1016.0 |
| 20260507165318 | 63 | 0 | 1.7 | 3.5 | 0.00 | 0.00 | 0.00 | 78 | 1016.0 |
| 20260507164821 | 63 | 0 | 2.6 | 5.2 | 0.00 | 0.00 | 0.00 | 77 | 1016.0 |
| 20260507164321 | 63 | 0 | 2.6 | 5.2 | 0.00 | 0.00 | 0.00 | 77 | 1016.0 |
| 20260507163818 | 64 | 0 | 1.7 | 8.7 | 0.00 | 0.00 | 0.00 | 76 | 1016.0 |
| 20260507163318 | 64 | 0 | 2.6 | 7.0 | 0.00 | 0.00 | 0.00 | 77 | 1016.1 |
| 20260507162821 | 63 | 0 | 2.6 | 8.7 | 0.00 | 0.00 | 0.00 | 78 | 1016.0 |
| 20260507162321 | 63 | 0 | 1.7 | 4.3 | 0.00 | 0.00 | 0.00 | 78 | 1016.0 |
| 20260507161821 | 64 | 0 | 2.6 | 7.0 | 0.00 | 0.00 | 0.00 | 77 | 1016.0 |
| 20260507161318 | 64 | 0 | 5.2 | 5.2 | 0.00 | 0.00 | 0.00 | 78 | 1016.1 |
| 20260507160824 | 64 | 0 | 2.6 | 7.8 | 0.00 | 0.00 | 0.00 | 77 | 1015.9 |
| 20260507160318 | 64 | 0 | 2.6 | 5.2 | 0.00 | 0.00 | 0.00 | 77 | 1016.0 |
| 20260507155824 | 64 | 0 | 0.9 | 7.8 | 0.00 | 0.00 | 0.00 | 77 | 1016.0 |
| 20260507155321 | 64 | 0 | 2.6 | 7.0 | 0.00 | 0.00 | 0.00 | 76 | 1016.0 |
| 20260507154818 | 65 | 0 | 1.7 | 4.3 | 0.00 | 0.00 | 0.00 | 75 | 1016.1 |
| 20260507154321 | 65 | 0 | 3.5 | 7.0 | 0.00 | 0.00 | 0.00 | 76 | 1016.1 |
| 20260507153818 | 64 | 0 | 2.6 | 7.0 | 0.00 | 0.00 | 0.00 | 76 | 1016.1 |
| 20260507153321 | 64 | 0 | 2.6 | 9.6 | 0.00 | 0.00 | 0.00 | 76 | 1016.0 |
| 20260507152818 | 64 | 0 | 7.0 | 7.8 | 0.00 | 0.00 | 0.00 | 76 | 1016.0 |
| 20260507152321 | 64 | 0 | 2.6 | 8.7 | 0.00 | 0.00 | 0.00 | 76 | 1016.1 |
| 20260507151818 | 65 | 0 | 4.3 | 8.7 | 0.00 | 0.00 | 0.00 | 77 | 1016.1 |
| 20260507151318 | 64 | 0 | 3.5 | 5.2 | 0.00 | 0.00 | 0.00 | 77 | 1016.1 |
| 20260507150818 | 64 | 0 | 1.7 | 7.0 | 0.00 | 0.00 | 0.00 | 77 | 1016.1 |
| 20260507150318 | 64 | 0 | 2.6 | 5.2 | 0.00 | 0.00 | 0.00 | 77 | 1016.1 |
| 20260507145818 | 63 | 0 | 1.7 | 5.2 | 0.00 | 0.00 | 0.00 | 77 | 1016.1 |
| 20260507145321 | 63 | 0 | 3.5 | 7.0 | 0.00 | 0.00 | 0.00 | 77 | 1016.0 |
| 20260507144824 | 64 | 0 | 3.5 | 9.6 | 0.00 | 0.00 | 0.00 | 75 | 1016.1 |
| 20260507144318 | 65 | 0 | 3.5 | 9.6 | 0.00 | 0.00 | 0.00 | 74 | 1016.1 |
| 20260507143824 | 65 | 0 | 1.7 | 7.0 | 0.00 | 0.00 | 0.00 | 75 | 1016.1 |
| 20260507143318 | 65 | 0 | 2.6 | 7.8 | 0.00 | 0.00 | 0.00 | 76 | 1016.1 |
| 20260507142818 | 65 | 0 | 3.5 | 5.2 | 0.00 | 0.00 | 0.00 | 77 | 1016.2 |
| 20260507142318 | 64 | 0 | 1.7 | 11.3 | 0.00 | 0.00 | 0.00 | 76 | 1016.2 |
| 20260507141818 | 64 | 0 | 4.3 | 8.7 | 0.00 | 0.00 | 0.00 | 75 | 1016.3 |
| 20260507141321 | 64 | 0 | 4.3 | 7.0 | 0.00 | 0.00 | 0.00 | 76 | 1016.2 |
| 20260507140818 | 65 | 0 | 1.7 | 9.6 | 0.00 | 0.00 | 0.00 | 77 | 1016.2 |
| 20260507140324 | 65 | 0 | 4.3 | 7.0 | 0.00 | 0.00 | 0.00 | 78 | 1016.1 |
| 20260507135818 | 65 | 0 | 0.9 | 9.6 | 0.00 | 0.00 | 0.00 | 78 | 1016.1 |
| 20260507135321 | 64 | 0 | 3.5 | 7.8 | 0.00 | 0.00 | 0.00 | 79 | 1016.1 |
| 20260507134819 | 64 | 0 | 5.2 | 12.2 | 0.00 | 0.00 | 0.00 | 78 | 1016.2 |
| 20260507134321 | 65 | 0 | 7.0 | 13.0 | 0.00 | 0.00 | 0.00 | 77 | 1016.1 |
| 20260507133818 | 65 | 0 | 4.3 | 7.0 | 0.00 | 0.00 | 0.00 | 76 | 1016.2 |
| 20260507133318 | 65 | 0 | 1.7 | 8.7 | 0.00 | 0.00 | 0.00 | 76 | 1016.3 |
| 20260507132818 | 65 | 0 | 5.2 | 7.8 | 0.00 | 0.00 | 0.00 | 77 | 1016.2 |
| 20260507132318 | 65 | 0 | 5.2 | 7.8 | 0.00 | 0.00 | 0.00 | 78 | 1016.2 |
| 20260507131824 | 64 | 0 | 2.6 | 9.6 | 0.00 | 0.00 | 0.00 | 78 | 1016.3 |
| 20260507131318 | 64 | 0 | 1.7 | 9.6 | 0.00 | 0.00 | 0.00 | 79 | 1016.3 |
| 20260507130821 | 64 | 0 | 2.6 | 10.4 | 0.00 | 0.00 | 0.00 | 78 | 1016.1 |
| 20260507130318 | 64 | 0 | 4.3 | 8.7 | 0.00 | 0.00 | 0.00 | 78 | 1016.2 |
| 20260507125821 | 64 | 0 | 1.7 | 7.8 | 0.00 | 0.00 | 0.00 | 78 | 1016.2 |
| 20260507125318 | 64 | 0 | 2.6 | 5.2 | 0.00 | 0.00 | 0.00 | 78 | 1016.2 |
| 20260507124824 | 64 | 0 | 3.5 | 5.2 | 0.00 | 0.00 | 0.00 | 78 | 1016.3 |
| 20260507124318 | 64 | 0 | 5.2 | 7.8 | 0.00 | 0.00 | 0.00 | 77 | 1016.1 |
| 20260507123818 | 64 | 0 | 2.6 | 8.7 | 0.00 | 0.00 | 0.00 | 78 | 1016.1 |
| 20260507123318 | 63 | 0 | 1.7 | 8.7 | 0.00 | 0.00 | 0.00 | 79 | 1016.0 |
| 20260507122824 | 63 | 0 | 4.3 | 7.8 | 0.00 | 0.00 | 0.00 | 78 | 1016.0 |
| 20260507122324 | 63 | 0 | 3.5 | 7.0 | 0.00 | 0.00 | 0.00 | 79 | 1016.0 |
| 20260507121818 | 63 | 0 | 2.6 | 7.8 | 0.00 | 0.00 | 0.00 | 80 | 1016.0 |
| 20260507121324 | 63 | 0 | 7.0 | 8.7 | 0.00 | 0.00 | 0.00 | 80 | 1016.0 |
| 20260507120824 | 63 | 0 | 2.6 | 7.0 | 0.00 | 0.00 | 0.00 | 79 | 1016.1 |
| 20260507120318 | 63 | 0 | 3.5 | 4.3 | 0.00 | 0.00 | 0.00 | 78 | 1016.1 |
| 20260507115824 | 63 | 0 | 1.7 | 3.5 | 0.00 | 0.00 | 0.00 | 78 | 1016.2 |
| 20260507115318 | 63 | 0 | 1.7 | 7.8 | 0.00 | 0.00 | 0.00 | 78 | 1016.0 |
| 20260507114818 | 63 | 0 | 2.6 | 7.8 | 0.00 | 0.00 | 0.00 | 78 | 1016.1 |
| 20260507114321 | 63 | 0 | 3.5 | 10.4 | 0.00 | 0.00 | 0.00 | 77 | 1016.3 |
| 20260507113818 | 64 | 0 | 1.7 | 8.7 | 0.00 | 0.00 | 0.00 | 76 | 1016.4 |
| 20260507113318 | 64 | 0 | 5.2 | 7.0 | 0.00 | 0.00 | 0.00 | 76 | 1016.4 |
| 20260507112818 | 64 | 0 | 2.6 | 9.6 | 0.00 | 0.00 | 0.00 | 77 | 1016.4 |
| 20260507112318 | 64 | 0 | 2.6 | 10.4 | 0.00 | 0.00 | 0.00 | 76 | 1016.5 |
| 20260507111821 | 64 | 0 | 2.6 | 7.0 | 0.00 | 0.00 | 0.00 | 76 | 1016.5 |
| 20260507111318 | 64 | 0 | 1.7 | 8.7 | 0.00 | 0.00 | 0.00 | 77 | 1016.5 |
| 20260507110821 | 63 | 0 | 3.5 | 10.4 | 0.00 | 0.00 | 0.00 | 80 | 1016.4 |
| 20260507110321 | 63 | 0 | 2.6 | 8.7 | 0.00 | 0.00 | 0.00 | 79 | 1016.4 |
| 20260507105821 | 63 | 0 | 0.9 | 7.8 | 0.00 | 0.00 | 0.00 | 79 | 1016.3 |
| 20260507105321 | 63 | 0 | 7.8 | 7.8 | 0.00 | 0.00 | 0.00 | 80 | 1016.1 |
| 20260507104824 | 63 | 0 | 3.5 | 7.8 | 0.00 | 0.00 | 0.00 | 80 | 1016.3 |
| 20260507104324 | 63 | 0 | 1.7 | 8.7 | 0.00 | 0.00 | 0.00 | 79 | 1016.3 |
| 20260507103821 | 63 | 0 | 2.6 | 10.4 | 0.00 | 0.00 | 0.00 | 80 | 1016.3 |
| 20260507103321 | 62 | 0 | 4.3 | 10.4 | 0.00 | 0.00 | 0.00 | 82 | 1016.3 |
| 20260507102818 | 61 | 0 | 1.7 | 7.8 | 0.00 | 0.00 | 0.00 | 83 | 1016.4 |
| 20260507102324 | 61 | 0 | 2.6 | 11.3 | 0.00 | 0.00 | 0.00 | 83 | 1016.4 |
| 20260507101821 | 61 | 0 | 5.2 | 10.4 | 0.00 | 0.00 | 0.00 | 83 | 1016.3 |
| 20260507101318 | 61 | 0 | 3.5 | 8.7 | 0.00 | 0.00 | 0.00 | 82 | 1016.1 |
| 20260507100818 | 62 | 0 | 1.7 | 7.0 | 0.00 | 0.00 | 0.00 | 82 | 1016.3 |
| 20260507100321 | 62 | 0 | 0.9 | 9.6 | 0.00 | 0.00 | 0.00 | 81 | 1016.1 |
| 20260507095821 | 62 | 0 | 4.3 | 11.3 | 0.00 | 0.00 | 0.00 | 80 | 1016.1 |
| 20260507095318 | 63 | 0 | 7.8 | 10.4 | 0.00 | 0.00 | 0.00 | 80 | 1016.4 |
| 20260507094818 | 64 | 0 | 2.6 | 8.7 | 0.00 | 0.00 | 0.00 | 79 | 1016.3 |
| 20260507094324 | 63 | 0 | 10.4 | 10.4 | 0.00 | 0.00 | 0.00 | 80 | 1016.4 |
| 20260507093821 | 63 | 0 | 0.9 | 7.8 | 0.00 | 0.00 | 0.00 | 81 | 1016.3 |
| 20260507093318 | 63 | 0 | 2.6 | 7.0 | 0.00 | 0.00 | 0.00 | 80 | 1016.3 |
| 20260507092821 | 63 | 0 | 7.0 | 10.4 | 0.00 | 0.00 | 0.00 | 80 | 1016.3 |
| 20260507092321 | 63 | 0 | 1.7 | 9.6 | 0.00 | 0.00 | 0.00 | 80 | 1016.3 |
| 20260507091821 | 63 | 0 | 4.3 | 10.4 | 0.00 | 0.00 | 0.00 | 80 | 1016.1 |
| 20260507091324 | 63 | 0 | 0.9 | 11.3 | 0.00 | 0.00 | 0.00 | 79 | 1016.2 |
| 20260507090818 | 63 | 0 | 2.6 | 7.8 | 0.00 | 0.00 | 0.00 | 80 | 1016.1 |
| 20260507090318 | 62 | 0 | 1.7 | 13.0 | 0.00 | 0.00 | 0.00 | 80 | 1015.9 |
| 20260507085818 | 62 | 0 | 3.5 | 10.4 | 0.00 | 0.00 | 0.00 | 80 | 1016.0 |
| 20260507085324 | 62 | 0 | 1.7 | 7.0 | 0.00 | 0.00 | 0.00 | 81 | 1015.9 |
| 20260507084821 | 61 | 0 | 5.2 | 8.7 | 0.00 | 0.00 | 0.00 | 81 | 1015.9 |
| 20260507084318 | 61 | 0 | 2.6 | 10.4 | 0.00 | 0.00 | 0.00 | 81 | 1015.9 |
| 20260507083821 | 61 | 0 | 5.2 | 10.4 | 0.00 | 0.00 | 0.00 | 82 | 1015.7 |
| 20260507083318 | 61 | 0 | 4.3 | 8.7 | 0.00 | 0.00 | 0.00 | 82 | 1015.5 |
| 20260507082818 | 61 | 0 | 2.6 | 9.6 | 0.00 | 0.00 | 0.00 | 82 | 1015.5 |
| 20260507082318 | 61 | 0 | 1.7 | 12.2 | 0.00 | 0.00 | 0.00 | 82 | 1015.6 |
| 20260507081818 | 61 | 0 | 2.6 | 12.2 | 0.00 | 0.00 | 0.00 | 82 | 1015.5 |
| 20260507081318 | 60 | 0 | 2.6 | 9.6 | 0.00 | 0.00 | 0.00 | 82 | 1015.3 |
| 20260507080821 | 60 | 0 | 7.8 | 9.6 | 0.00 | 0.00 | 0.00 | 82 | 1015.2 |
| 20260507080324 | 61 | 0 | 0.9 | 7.0 | 0.00 | 0.00 | 0.00 | 81 | 1015.3 |
| 20260507075821 | 61 | 0 | 3.5 | 8.7 | 0.00 | 0.00 | 0.00 | 80 | 1015.4 |
| 20260507075318 | 61 | 0 | 1.7 | 10.4 | 0.00 | 0.00 | 0.00 | 79 | 1015.3 |
| 20260507074818 | 61 | 0 | 2.6 | 8.7 | 0.00 | 0.00 | 0.00 | 79 | 1015.0 |
| 20260507074318 | 61 | 0 | 1.7 | 7.8 | 0.00 | 0.00 | 0.00 | 79 | 1014.9 |
| 20260507073824 | 60 | 0 | 1.7 | 7.8 | 0.00 | 0.00 | 0.00 | 79 | 1015.0 |
| 20260507073318 | 60 | 0 | 1.7 | 7.0 | 0.00 | 0.00 | 0.00 | 79 | 1015.0 |
| 20260507072824 | 60 | 0 | 0.9 | 9.6 | 0.00 | 0.00 | 0.00 | 79 | 1015.0 |
| 20260507072324 | 60 | 0 | 1.7 | 5.2 | 0.00 | 0.00 | 0.00 | 78 | 1014.9 |
| 20260507071818 | 60 | 0 | 1.7 | 8.7 | 0.00 | 0.00 | 0.00 | 79 | 1015.0 |
| 20260507071321 | 60 | 0 | 3.5 | 5.2 | 0.00 | 0.00 | 0.00 | 78 | 1015.1 |
| 20260507070824 | 61 | 0 | 3.5 | 11.3 | 0.00 | 0.00 | 0.00 | 78 | 1015.0 |
| 20260507070318 | 61 | 0 | 4.3 | 7.0 | 0.00 | 0.00 | 0.00 | 79 | 1014.9 |
| 20260507065818 | 60 | 0 | 1.7 | 8.7 | 0.00 | 0.00 | 0.00 | 79 | 1014.8 |
| 20260507065321 | 60 | 0 | 4.3 | 8.7 | 0.00 | 0.00 | 0.00 | 80 | 1014.8 |
| 20260507064818 | 60 | 0 | 2.6 | 7.8 | 0.00 | 0.03 | 0.00 | 81 | 1014.9 |
| 20260507064318 | 59 | 0 | 1.7 | 5.2 | 0.00 | 0.21 | 0.00 | 81 | 1014.9 |
| 20260507063818 | 59 | 0 | 1.7 | 4.3 | 0.00 | 0.27 | 0.00 | 82 | 1014.9 |
| 20260507063318 | 59 | 0 | 3.5 | 7.0 | 0.00 | 0.27 | 0.00 | 82 | 1014.8 |
| 20260507062824 | 59 | 0 | 2.6 | 5.2 | 0.00 | 0.27 | 0.00 | 82 | 1014.8 |
| 20260507062318 | 59 | 0 | 2.6 | 2.6 | 0.00 | 0.27 | 0.00 | 83 | 1014.9 |
| 20260507061818 | 59 | 0 | 1.7 | 3.5 | 0.00 | 0.28 | 0.00 | 82 | 1014.8 |
| 20260507061327 | 59 | 0 | 3.5 | 5.2 | 0.00 | 0.28 | 0.00 | 83 | 1014.8 |
| 20260507060821 | 59 | 0 | 0.9 | 5.2 | 0.00 | 0.28 | 0.00 | 83 | 1014.6 |
| 20260507060327 | 58 | 0 | 1.7 | 7.0 | 0.00 | 0.28 | 0.00 | 83 | 1014.7 |
| 20260507055821 | 58 | 0 | 0.0 | 2.6 | 0.00 | 0.28 | 0.00 | 83 | 1014.7 |
| 20260507055321 | 58 | 0 | 0.0 | 3.5 | 0.00 | 0.28 | 0.00 | 83 | 1014.7 |
| 20260507054821 | 58 | 0 | 1.7 | 7.0 | 0.00 | 0.28 | 0.00 | 83 | 1014.8 |
| 20260507054321 | 58 | 0 | 0.0 | 3.5 | 0.00 | 0.28 | 0.00 | 84 | 1014.7 |
| 20260507053821 | 58 | 0 | 2.6 | 2.6 | 0.00 | 0.28 | 0.00 | 84 | 1014.7 |
| 20260507053324 | 58 | 0 | 0.0 | 3.5 | 0.00 | 0.28 | 0.00 | 84 | 1014.6 |
| 20260507052818 | 58 | 0 | 2.6 | 3.5 | 0.00 | 0.28 | 0.00 | 85 | 1014.5 |
| 20260507052321 | 58 | 0 | 0.9 | 2.6 | 0.00 | 0.28 | 0.00 | 85 | 1014.5 |
| 20260507051821 | 58 | 0 | 0.0 | 2.6 | 0.00 | 0.28 | 0.00 | 85 | 1014.6 |
| 20260507051321 | 58 | 0 | 3.5 | 7.0 | 0.00 | 0.28 | 0.00 | 85 | 1014.4 |
| 20260507050821 | 57 | 0 | 1.7 | 3.5 | 0.00 | 0.28 | 0.00 | 85 | 1014.3 |
| 20260507050321 | 57 | 0 | 1.7 | 4.3 | 0.00 | 0.28 | 0.00 | 86 | 1014.3 |
| 20260507045818 | 57 | 0 | 0.0 | 1.7 | 0.00 | 0.28 | 0.00 | 86 | 1014.2 |
| 20260507045318 | 57 | 0 | 0.9 | 2.6 | 0.00 | 0.28 | 0.00 | 86 | 1014.2 |
| 20260507044818 | 57 | 0 | 0.0 | 2.6 | 0.00 | 0.28 | 0.00 | 86 | 1014.1 |
| 20260507044321 | 57 | 0 | 1.7 | 2.6 | 0.00 | 0.28 | 0.00 | 86 | 1014.1 |
| 20260507043824 | 58 | 0 | 0.9 | 4.3 | 0.00 | 0.28 | 0.00 | 86 | 1014.1 |
| 20260507043321 | 58 | 0 | 0.0 | 2.6 | 0.00 | 0.28 | 0.00 | 86 | 1014.2 |
| 20260507042821 | 58 | 0 | 1.7 | 4.3 | 0.00 | 0.28 | 0.00 | 86 | 1014.1 |
| 20260507042324 | 58 | 0 | 0.0 | 3.5 | 0.00 | 0.28 | 0.00 | 86 | 1014.1 |
| 20260507041818 | 58 | 0 | 2.6 | 2.6 | 0.00 | 0.28 | 0.00 | 86 | 1014.0 |
| 20260507041321 | 58 | 0 | 0.0 | 3.5 | 0.00 | 0.29 | 0.00 | 86 | 1014.0 |
| 20260507040818 | 58 | 0 | 0.0 | 2.6 | 0.00 | 0.29 | 0.00 | 86 | 1013.9 |
| 20260507040321 | 58 | 0 | 1.7 | 4.3 | 0.00 | 0.29 | 0.00 | 86 | 1014.0 |
| 20260507035821 | 58 | 0 | 0.0 | 3.5 | 0.00 | 0.29 | 0.00 | 86 | 1014.0 |
| 20260507035318 | 58 | 0 | 0.0 | 7.0 | 0.00 | 0.29 | 0.00 | 86 | 1014.0 |
| 20260507034821 | 58 | 0 | 0.9 | 5.2 | 0.00 | 0.29 | 0.00 | 86 | 1014.0 |
| 20260507034321 | 58 | 0 | 3.5 | 3.5 | 0.00 | 0.29 | 0.00 | 85 | 1014.0 |
| 20260507033821 | 58 | 0 | 0.0 | 2.6 | 0.00 | 0.29 | 0.00 | 85 | 1014.0 |
| 20260507033324 | 58 | 0 | 0.9 | 3.5 | 0.00 | 0.29 | 0.00 | 85 | 1014.0 |
| 20260507032824 | 58 | 0 | 2.6 | 3.5 | 0.00 | 0.29 | 0.00 | 85 | 1014.0 |
| 20260507032318 | 58 | 0 | 0.9 | 2.6 | 0.00 | 0.29 | 0.00 | 85 | 1014.0 |
| 20260507031818 | 58 | 0 | 0.9 | 2.6 | 0.00 | 0.29 | 0.00 | 85 | 1013.9 |
| 20260507031318 | 58 | 0 | 0.9 | 7.8 | 0.00 | 0.29 | 0.00 | 85 | 1013.9 |
| 20260507030821 | 58 | 0 | 0.9 | 7.8 | 0.00 | 0.29 | 0.00 | 85 | 1013.9 |
| 20260507030321 | 58 | 0 | 0.9 | 3.5 | 0.00 | 0.29 | 0.00 | 85 | 1014.0 |
| 20260507025818 | 58 | 0 | 0.9 | 2.6 | 0.00 | 0.29 | 0.00 | 85 | 1014.0 |
| 20260507025321 | 58 | 0 | 0.9 | 5.2 | 0.00 | 0.29 | 0.00 | 85 | 1014.0 |
| 20260507024821 | 58 | 0 | 2.6 | 3.5 | 0.00 | 0.29 | 0.00 | 85 | 1013.9 |
| 20260507024318 | 58 | 0 | 1.7 | 4.3 | 0.00 | 0.29 | 0.00 | 85 | 1013.9 |
| 20260507023824 | 58 | 0 | 0.9 | 7.0 | 0.00 | 0.30 | 0.00 | 85 | 1014.0 |
| 20260507023318 | 58 | 0 | 0.0 | 7.0 | 0.00 | 0.30 | 0.00 | 85 | 1014.0 |
| 20260507022818 | 58 | 0 | 0.9 | 4.3 | 0.00 | 0.31 | 0.00 | 85 | 1014.0 |
| 20260507022318 | 58 | 0 | 2.6 | 7.0 | 0.00 | 0.33 | 0.00 | 86 | 1014.0 |
| 20260507021827 | 58 | 0 | 0.0 | 3.5 | 0.00 | 0.33 | 0.00 | 86 | 1014.0 |
| 20260507021322 | 58 | 0 | 0.0 | 4.3 | 0.00 | 0.33 | 0.00 | 86 | 1014.0 |
| 20260507020819 | 58 | 0 | 1.7 | 4.3 | 0.00 | 0.35 | 0.00 | 85 | 1014.0 |
| 20260507020318 | 58 | 0 | 0.9 | 3.5 | 0.00 | 0.38 | 0.00 | 86 | 1013.9 |
| 20260507015818 | 58 | 0 | 1.7 | 3.5 | 0.00 | 0.44 | 0.00 | 85 | 1014.0 |
| 20260507015318 | 58 | 0 | 1.7 | 3.5 | 0.00 | 0.48 | 0.00 | 85 | 1014.0 |
| 20260507014818 | 58 | 0 | 2.6 | 7.0 | 0.00 | 0.50 | 0.00 | 85 | 1013.9 |
| 20260507014318 | 58 | 0 | 0.9 | 4.3 | 0.00 | 0.55 | 0.00 | 85 | 1013.8 |
| 20260507013821 | 59 | 0 | 0.9 | 4.3 | 0.00 | 0.64 | 0.00 | 85 | 1013.8 |
| 20260507013318 | 59 | 0 | 0.0 | 1.7 | 0.00 | 0.77 | 0.00 | 85 | 1013.9 |
| 20260507012818 | 59 | 0 | 1.7 | 3.5 | 0.00 | 0.91 | 0.00 | 84 | 1014.0 |
| 20260507012324 | 59 | 0 | 3.5 | 7.0 | 0.00 | 1.00 | 0.00 | 84 | 1014.0 |
| 20260507011818 | 59 | 0 | 0.9 | 4.3 | 0.00 | 1.03 | 0.00 | 84 | 1014.1 |
| 20260507011318 | 59 | 0 | 2.6 | 7.0 | 0.00 | 1.06 | 0.00 | 84 | 1014.0 |
| 20260507010824 | 59 | 0 | 2.6 | 5.2 | 0.00 | 1.08 | 0.00 | 84 | 1014.1 |
| 20260507010321 | 59 | 0 | 1.7 | 4.3 | 0.00 | 1.10 | 0.00 | 84 | 1014.2 |
| 20260507005818 | 59 | 0 | 1.7 | 4.3 | 0.00 | 1.11 | 0.00 | 84 | 1014.2 |
| 20260507005318 | 59 | 0 | 0.9 | 5.2 | 0.00 | 1.12 | 0.00 | 84 | 1014.2 |
| 20260507004821 | 59 | 0 | 1.7 | 5.2 | 0.00 | 1.14 | 0.00 | 84 | 1014.2 |
| 20260507004327 | 59 | 0 | 0.0 | 3.5 | 0.00 | 1.15 | 0.00 | 84 | 1014.2 |
| 20260507003818 | 59 | 0 | 5.2 | 7.8 | 0.00 | 1.16 | 0.00 | 84 | 1014.1 |
| 20260507003318 | 59 | 0 | 1.7 | 4.3 | 0.00 | 1.25 | 0.00 | 84 | 1014.1 |
| 20260507002818 | 59 | 0 | 1.7 | 4.3 | 0.00 | 1.28 | 0.00 | 84 | 1014.1 |
| 20260507002321 | 59 | 0 | 7.0 | 8.7 | 0.00 | 1.30 | 0.00 | 84 | 1014.1 |
| 20260507001821 | 59 | 0 | 0.0 | 5.2 | 0.00 | 1.34 | 0.00 | 84 | 1014.1 |
| 20260507001321 | 59 | 0 | 1.7 | 8.7 | 0.00 | 1.37 | 0.00 | 84 | 1014.0 |
| 20260507000824 | 59 | 0 | 0.9 | 3.5 | 0.00 | 1.37 | 0.00 | 84 | 1014.1 |
| 20260507000321 | 59 | 0 | 1.7 | 7.0 | 0.00 | 1.37 | 0.00 | 84 | 1014.0 |
| 20260506235821 | 59 | 0 | 0.9 | 5.2 | 0.00 | 1.37 | 0.00 | 84 | 1014.1 |
| 20260506235321 | 59 | 0 | 1.7 | 5.2 | 0.00 | 1.37 | 0.00 | 83 | 1014.1 |
| 20260506234818 | 59 | 0 | 3.5 | 7.0 | 0.00 | 1.37 | 0.00 | 83 | 1014.2 |
| 20260506234324 | 59 | 0 | 3.5 | 4.3 | 0.00 | 1.37 | 0.00 | 83 | 1014.2 |
| 20260506233824 | 59 | 0 | 1.7 | 5.2 | 0.00 | 1.37 | 0.00 | 82 | 1014.2 |
| 20260506233318 | 59 | 0 | 2.6 | 7.0 | 0.00 | 1.37 | 0.00 | 82 | 1014.2 |
| 20260506232824 | 59 | 0 | 2.6 | 7.8 | 0.00 | 1.37 | 0.00 | 82 | 1014.2 |
| 20260506232324 | 59 | 0 | 3.5 | 7.8 | 0.00 | 1.37 | 0.00 | 81 | 1014.1 |
| 20260506231818 | 59 | 0 | 3.5 | 7.0 | 0.00 | 1.37 | 0.00 | 81 | 1014.1 |
| 20260506231324 | 59 | 0 | 0.0 | 4.3 | 0.00 | 1.37 | 0.00 | 81 | 1014.1 |
| 20260506230818 | 59 | 0 | 1.7 | 7.8 | 0.00 | 1.37 | 0.00 | 81 | 1014.1 |
| 20260506230318 | 59 | 0 | 0.9 | 4.3 | 0.00 | 1.37 | 0.00 | 81 | 1014.2 |
| 20260506225818 | 59 | 0 | 0.9 | 5.2 | 0.00 | 1.37 | 0.00 | 81 | 1014.2 |
| 20260506225321 | 59 | 0 | 0.9 | 7.0 | 0.00 | 1.37 | 0.00 | 81 | 1014.2 |
| 20260506224818 | 59 | 0 | 1.7 | 5.2 | 0.00 | 1.37 | 0.00 | 81 | 1014.2 |
| 20260506224318 | 59 | 0 | 0.9 | 5.2 | 0.00 | 1.37 | 0.00 | 81 | 1014.2 |
| 20260506223821 | 59 | 0 | 2.6 | 5.2 | 0.00 | 1.37 | 0.00 | 81 | 1014.2 |
| 20260506223318 | 59 | 0 | 3.5 | 12.2 | 0.00 | 1.37 | 0.00 | 81 | 1014.1 |
| 20260506222824 | 59 | 0 | 3.5 | 12.2 | 0.00 | 1.37 | 0.00 | 81 | 1014.2 |
| 20260506222321 | 59 | 0 | 1.7 | 7.0 | 0.00 | 1.37 | 0.00 | 81 | 1014.2 |
| 20260506221824 | 59 | 0 | 1.7 | 4.3 | 0.00 | 1.37 | 0.00 | 81 | 1014.2 |
| 20260506221327 | 59 | 0 | 0.9 | 7.8 | 0.00 | 1.37 | 0.00 | 82 | 1014.2 |
| 20260506220821 | 59 | 0 | 0.9 | 7.0 | 0.00 | 1.37 | 0.00 | 81 | 1014.3 |
| 20260506220318 | 59 | 0 | 2.6 | 7.0 | 0.00 | 1.37 | 0.00 | 82 | 1014.2 |
| 20260506215818 | 59 | 0 | 1.7 | 7.0 | 0.00 | 1.37 | 0.00 | 81 | 1014.2 |
| 20260506215324 | 59 | 0 | 1.7 | 8.7 | 0.00 | 1.37 | 0.00 | 81 | 1014.2 |
| 20260506214824 | 59 | 0 | 0.9 | 7.0 | 0.00 | 1.37 | 0.00 | 81 | 1014.2 |
| 20260506214327 | 59 | 0 | 4.3 | 5.2 | 0.00 | 1.37 | 0.00 | 82 | 1014.3 |
| 20260506213824 | 59 | 0 | 1.7 | 9.6 | 0.00 | 1.37 | 0.00 | 82 | 1014.2 |
| 20260506213321 | 59 | 0 | 1.7 | 4.3 | 0.00 | 1.37 | 0.00 | 82 | 1014.3 |
| 20260506212818 | 59 | 0 | 5.2 | 11.3 | 0.00 | 1.37 | 0.00 | 82 | 1014.3 |
| 20260506212318 | 59 | 0 | 3.5 | 9.6 | 0.00 | 1.37 | 0.00 | 82 | 1014.2 |
| 20260506211818 | 59 | 0 | 1.7 | 7.8 | 0.00 | 1.37 | 0.00 | 82 | 1014.3 |
| 20260506211321 | 59 | 0 | 1.7 | 7.0 | 0.00 | 1.37 | 0.00 | 82 | 1014.2 |